QPF
0.02 0.02 0.01 0.02 0.01 0.01 0.01 0.01 0.01 0.01 0.01 0.01 0.01 0.01 0.01 0.01 0.00 0.00 0.00 0.00 0.00 0.00 0.00 0.00 0.00 0.00 0.00 0.00 0.00 0.00 0.00 0.00 0.00 0.00 0.00 0.00 0.00 0.00 0.00 0.00 0.00 0.00 0.00
0.01 0.01 0.01 0.01 0.01 0.01 0.01 0.01 0.01 0.01 0.01 0.01 0.01 0.01 0.01 0.01 0.01 0.00 0.00 0.00 0.00 0.00 0.00 0.00 0.00 0.00 0.00 0.00 0.00 0.00 0.00 0.00 0.00 0.00 0.00 0.00 0.00 0.00 0.00 0.00 0.00 0.00 0.00
0.00 0.00 0.00 0.00 0.00 0.00 0.01 0.01 0.01 0.01 0.01 0.01 0.01 0.01 0.01 0.01 0.01 0.00 0.00 0.00 0.00 0.00 0.00 0.00 0.00 0.00 0.00 0.00 0.00 0.00 0.00 0.00 0.00 0.00 0.00 0.00 0.00 0.00 0.00 0.00 0.00 0.00 0.00
0.00 0.00 0.00 0.00 0.00 0.01 0.01 0.01 0.01 0.01 0.02 0.02 0.02 0.01 0.01 0.00 0.00 0.00 0.00 0.00 0.00 0.00 0.00 0.00 0.00 0.00 0.00 0.00 0.00 0.00 0.00 0.01 0.01 0.01 0.01 0.01 0.00 0.00 0.00 0.00 0.01 0.00 0.00
0.00 0.00 0.01 0.01 0.01 0.01 0.02 0.02 0.02 0.02 0.01 0.01 0.01 0.00 0.00 0.00 0.00 0.00 0.00 0.00 0.00 0.00 0.00 0.00 0.00 0.00 0.00 0.01 0.01 0.01 0.01 0.01 0.02 0.02 0.02 0.02 0.01 0.01 0.01 0.01 0.02 0.01 0.01
0.00 0.01 0.01 0.02 0.02 0.02 0.02 0.01 0.01 0.01 0.01 0.00 0.00 0.00 0.00 0.00 0.00 0.00 0.00 0.00 0.00 0.00 0.00 0.00 0.00 0.00 0.00 0.00 0.01 0.01 0.02 0.02 0.02 0.03 0.03 0.03 0.02 0.01 0.02 0.02 0.02 0.03 0.02
0.01 0.02 0.02 0.02 0.02 0.02 0.02 0.01 0.01 0.01 0.00 0.00 0.00 0.00 0.00 0.00 0.00 0.00 0.00 0.00 0.00 0.00 0.00 0.00 0.00 0.00 0.00 0.00 0.00 0.00 0.00 0.01 0.01 0.02 0.03 0.03 0.03 0.03 0.04 0.05 0.05 0.04 0.03
0.02 0.02 0.02 0.02 0.02 0.01 0.01 0.01 0.00 0.00 0.00 0.00 0.00 0.00 0.00 0.00 0.00 0.00 0.00 0.00 0.00 0.00 0.00 0.00 0.00 0.00 0.00 0.00 0.00 0.00 0.00 0.00 0.00 0.01 0.02 0.02 0.03 0.03 0.04 0.05 0.05 0.04 0.02
0.02 0.02 0.01 0.01 0.01 0.00 0.00 0.00 0.00 0.00 0.00 0.00 0.00 0.00 0.00 0.00 0.00 0.00 0.00 0.00 0.00 0.00 0.00 0.00 0.00 0.00 0.00 0.01 0.01 0.01 0.00 0.00 0.00 0.01 0.02 0.02 0.03 0.04 0.05 0.04 0.05 0.05 0.03
0.01 0.01 0.01 0.00 0.00 0.00 0.00 0.00 0.00 0.00 0.00 0.00 0.00 0.00 0.00 0.00 0.00 0.00 0.00 0.00 0.00 0.00 0.00 0.00 0.00 0.00 0.00 0.00 0.01 0.01 0.01 0.01 0.01 0.01 0.02 0.03 0.03 0.03 0.04 0.03 0.04 0.06 0.05
0.00 0.00 0.00 0.00 0.00 0.00 0.00 0.00 0.00 0.00 0.00 0.00 0.00 0.00 0.00 0.00 0.00 0.00 0.00 0.00 0.00 0.00 0.00 0.00 0.00 0.00 0.00 0.00 0.01 0.01 0.01 0.01 0.01 0.02 0.02 0.02 0.02 0.02 0.02 0.02 0.03 0.05 0.07
0.00 0.00 0.00 0.00 0.00 0.00 0.00 0.00 0.00 0.00 0.00 0.00 0.00 0.00 0.00 0.00 0.00 0.00 0.00 0.00 0.00 0.00 0.00 0.00 0.00 0.00 0.00 0.01 0.01 0.01 0.01 0.02 0.02 0.02 0.03 0.03 0.03 0.03 0.03 0.03 0.03 0.04 0.05
0.00 0.00 0.00 0.00 0.00 0.00 0.00 0.00 0.00 0.00 0.00 0.00 0.00 0.00 0.00 0.00 0.00 0.00 0.00 0.00 0.00 0.00 0.00 0.01 0.01 0.00 0.00 0.01 0.01 0.01 0.02 0.02 0.03 0.03 0.03 0.03 0.03 0.03 0.02 0.02 0.02 0.03 0.04
0.00 0.00 0.00 0.00 0.00 0.00 0.00 0.00 0.00 0.00 0.00 0.00 0.00 0.00 0.00 0.00 0.00 0.00 0.00 0.00 0.00 0.00 0.00 0.01 0.01 0.01 0.01 0.01 0.01 0.02 0.02 0.03 0.04 0.03 0.03 0.03 0.02 0.02 0.02 0.02 0.02 0.02 0.03
0.00 0.00 0.00 0.00 0.00 0.00 0.00 0.00 0.00 0.00 0.00 0.00 0.00 0.00 0.00 0.00 0.00 0.00 0.00 0.00 0.01 0.01 0.01 0.01 0.01 0.01 0.01 0.02 0.02 0.02 0.02 0.03 0.03 0.02 0.02 0.02 0.02 0.02 0.02 0.02 0.02 0.02 0.02
0.00 0.00 0.00 0.00 0.00 0.00 0.00 0.00 0.00 0.00 0.00 0.00 0.00 0.00 0.00 0.00 0.01 0.00 0.01 0.01 0.01 0.01 0.01 0.01 0.02 0.02 0.02 0.03 0.04 0.03 0.03 0.03 0.03 0.03 0.02 0.02 0.01 0.01 0.02 0.02 0.02 0.02 0.03
0.00 0.00 0.00 0.00 0.00 0.00 0.00 0.00 0.00 0.00 0.00 0.00 0.00 0.00 0.00 0.01 0.01 0.01 0.01 0.01 0.01 0.01 0.01 0.01 0.02 0.02 0.03 0.04 0.04 0.04 0.03 0.03 0.02 0.02 0.02 0.02 0.01 0.01 0.01 0.02 0.02 0.02 0.02
0.00 0.00 0.00 0.00 0.00 0.00 0.00 0.00 0.00 0.00 0.00 0.00 0.00 0.00 0.01 0.01 0.01 0.01 0.01 0.01 0.01 0.01 0.01 0.02 0.03 0.03 0.03 0.04 0.04 0.03 0.02 0.02 0.01 0.01 0.01 0.01 0.01 0.01 0.01 0.02 0.02 0.02 0.01
0.00 0.00 0.00 0.00 0.00 0.00 0.00 0.00 0.00 0.00 0.00 0.00 0.00 0.00 0.01 0.01 0.01 0.02 0.02 0.01 0.01 0.02 0.02 0.02 0.03 0.03 0.04 0.04 0.02 0.02 0.01 0.01 0.01 0.01 0.01 0.01 0.01 0.01 0.01 0.01 0.01 0.02 0.01
0.00 0.00 0.00 0.00 0.00 0.00 0.00 0.00 0.00 0.00 0.00 0.00 0.01 0.01 0.01 0.01 0.01 0.02 0.02 0.01 0.02 0.02 0.03 0.03 0.03 0.03 0.03 0.03 0.02 0.01 0.00 0.00 0.00 0.01 0.01 0.00 0.00 0.00 0.01 0.01 0.01 0.01 0.01
0.00 0.00 0.00 0.00 0.00 0.00 0.00 0.00 0.00 0.00 0.00 0.00 0.01 0.02 0.03 0.02 0.02 0.02 0.03 0.03 0.02 0.03 0.03 0.03 0.03 0.02 0.02 0.01 0.01 0.01 0.00 0.00 0.00 0.00 0.00 0.00 0.00 0.00 0.00 0.00 0.00 0.00 0.01
0.00 0.00 0.00 0.00 0.00 0.00 0.00 0.00 0.00 0.00 0.00 0.00 0.01 0.01 0.03 0.03 0.03 0.02 0.03 0.03 0.03 0.03 0.03 0.03 0.02 0.01 0.01 0.01 0.00 0.00 0.00 0.00 0.00 0.00 0.00 0.00 0.00 0.00 0.00 0.00 0.00 0.00 0.00
0.00 0.00 0.00 0.00 0.00 0.00 0.00 0.00 0.00 0.00 0.00 0.00 0.01 0.01 0.02 0.02 0.03 0.03 0.03 0.04 0.03 0.03 0.02 0.02 0.02 0.01 0.00 0.00 0.00 0.00 0.00 0.00 0.00 0.00 0.00 0.00 0.00 0.00 0.00 0.00 0.00 0.00 0.00
0.00 0.00 0.00 0.00 0.00 0.00 0.00 0.00 0.00 0.00 0.00 0.00 0.01 0.01 0.02 0.02 0.03 0.03 0.03 0.03 0.03 0.03 0.02 0.02 0.01 0.01 0.00 0.00 0.00 0.00 0.00 0.00 0.00 0.00 0.00 0.00 0.00 0.00 0.00 0.00 0.00 0.00 0.00
0.00 0.00 0.00 0.00 0.00 0.00 0.00 0.00 0.00 0.00 0.00 0.00 0.00 0.01 0.01 0.02 0.02 0.03 0.02 0.02 0.02 0.02 0.02 0.02 0.01 0.01 0.00 0.00 0.00 0.00 0.00 0.00 0.00 0.00 0.00 0.00 0.00 0.00 0.00 0.00 0.00 0.00 0.00
0.00 0.00 0.00 0.00 0.00 0.00 0.00 0.00 0.00 0.00 0.00 0.00 0.00 0.01 0.01 0.01 0.01 0.02 0.02 0.01 0.02 0.02 0.01 0.01 0.00 0.00 0.00 0.00 0.00 0.00 0.00 0.00 0.00 0.00 0.00 0.00 0.00 0.00 0.00 0.00 0.00 0.00 0.00
MSLP
1015.75 1016.08 1016.45 1016.85 1017.26 1017.67 1018.08 1018.49 1018.91 1019.32 1019.74 1020.14 1020.52 1020.85 1021.14 1021.38 1021.56 1021.69 1021.79 1021.87 1021.93 1021.98 1022.01 1022.01 1021.96 1021.85 1021.65 1021.36 1020.99 1020.54 1020.05 1019.52 1018.98 1018.45 1017.94 1017.45 1016.99 1016.55 1016.15 1015.77 1015.41 1015.09 1014.80
1016.88 1017.15 1017.44 1017.75 1018.07 1018.39 1018.71 1019.05 1019.40 1019.76 1020.13 1020.50 1020.86 1021.17 1021.44 1021.65 1021.80 1021.90 1021.96 1021.99 1022.00 1021.99 1021.96 1021.90 1021.79 1021.62 1021.39 1021.07 1020.69 1020.24 1019.74 1019.22 1018.68 1018.14 1017.61 1017.10 1016.59 1016.11 1015.63 1015.18 1014.76 1014.36 1014.00
1017.95 1018.19 1018.43 1018.68 1018.92 1019.16 1019.41 1019.67 1019.96 1020.26 1020.59 1020.91 1021.22 1021.50 1021.73 1021.91 1022.02 1022.08 1022.09 1022.06 1022.01 1021.94 1021.85 1021.73 1021.57 1021.36 1021.08 1020.75 1020.35 1019.90 1019.41 1018.90 1018.37 1017.83 1017.29 1016.75 1016.21 1015.68 1015.16 1014.64 1014.14 1013.67 1013.24
1018.90 1019.12 1019.34 1019.54 1019.73 1019.92 1020.11 1020.32 1020.55 1020.80 1021.08 1021.36 1021.62 1021.86 1022.04 1022.17 1022.23 1022.23 1022.19 1022.10 1021.99 1021.86 1021.70 1021.52 1021.30 1021.05 1020.74 1020.38 1019.97 1019.52 1019.03 1018.51 1017.98 1017.44 1016.90 1016.35 1015.80 1015.24 1014.67 1014.11 1013.56 1013.02 1012.52
1019.69 1019.91 1020.11 1020.29 1020.46 1020.62 1020.78 1020.95 1021.14 1021.36 1021.59 1021.83 1022.05 1022.23 1022.36 1022.43 1022.43 1022.38 1022.27 1022.12 1021.94 1021.74 1021.52 1021.28 1021.01 1020.71 1020.36 1019.97 1019.54 1019.07 1018.56 1018.04 1017.51 1016.97 1016.42 1015.87 1015.30 1014.73 1014.15 1013.56 1012.98 1012.41 1011.85
1020.34 1020.56 1020.76 1020.94 1021.10 1021.25 1021.39 1021.55 1021.72 1021.92 1022.11 1022.31 1022.48 1022.61 1022.68 1022.69 1022.63 1022.51 1022.33 1022.11 1021.87 1021.60 1021.32 1021.02 1020.69 1020.34 1019.95 1019.52 1019.05 1018.56 1018.03 1017.49 1016.95 1016.40 1015.85 1015.30 1014.74 1014.18 1013.60 1013.02 1012.43 1011.84 1011.26
1020.88 1021.10 1021.31 1021.50 1021.67 1021.82 1021.97 1022.12 1022.28 1022.45 1022.63 1022.78 1022.91 1022.98 1022.99 1022.93 1022.80 1022.61 1022.36 1022.08 1021.77 1021.44 1021.10 1020.74 1020.36 1019.96 1019.52 1019.05 1018.55 1018.02 1017.46 1016.90 1016.34 1015.78 1015.23 1014.69 1014.15 1013.62 1013.07 1012.51 1011.94 1011.36 1010.78
1021.38 1021.61 1021.82 1022.02 1022.20 1022.36 1022.51 1022.67 1022.82 1022.97 1023.11 1023.23 1023.30 1023.31 1023.26 1023.13 1022.94 1022.68 1022.36 1022.01 1021.64 1021.26 1020.86 1020.46 1020.03 1019.58 1019.11 1018.60 1018.05 1017.49 1016.91 1016.32 1015.74 1015.18 1014.64 1014.11 1013.61 1013.10 1012.60 1012.09 1011.56 1011.01 1010.45
1021.89 1022.12 1022.34 1022.55 1022.73 1022.90 1023.05 1023.20 1023.33 1023.45 1023.56 1023.62 1023.64 1023.60 1023.48 1023.29 1023.02 1022.70 1022.33 1021.93 1021.51 1021.08 1020.64 1020.19 1019.73 1019.24 1018.73 1018.19 1017.62 1017.02 1016.42 1015.82 1015.23 1014.67 1014.13 1013.63 1013.16 1012.70 1012.25 1011.79 1011.31 1010.80 1010.26
1022.43 1022.65 1022.88 1023.08 1023.27 1023.43 1023.57 1023.70 1023.81 1023.90 1023.95 1023.97 1023.92 1023.81 1023.63 1023.38 1023.06 1022.69 1022.27 1021.83 1021.38 1020.91 1020.44 1019.97 1019.48 1018.97 1018.43 1017.87 1017.27 1016.66 1016.04 1015.43 1014.84 1014.29 1013.77 1013.30 1012.86 1012.44 1012.04 1011.62 1011.18 1010.71 1010.20
1022.96 1023.19 1023.41 1023.61 1023.79 1023.94 1024.06 1024.16 1024.23 1024.28 1024.28 1024.24 1024.13 1023.97 1023.73 1023.43 1023.07 1022.66 1022.21 1021.74 1021.26 1020.78 1020.29 1019.80 1019.30 1018.77 1018.22 1017.64 1017.04 1016.42 1015.80 1015.19 1014.60 1014.06 1013.56 1013.11 1012.70 1012.31 1011.94 1011.56 1011.16 1010.71 1010.21
1023.44 1023.67 1023.88 1024.08 1024.25 1024.38 1024.48 1024.55 1024.58 1024.58 1024.53 1024.43 1024.28 1024.06 1023.79 1023.45 1023.06 1022.62 1022.16 1021.68 1021.19 1020.70 1020.20 1019.70 1019.19 1018.66 1018.10 1017.52 1016.92 1016.30 1015.68 1015.07 1014.50 1013.96 1013.48 1013.04 1012.65 1012.29 1011.94 1011.58 1011.19 1010.75 1010.26
1023.81 1024.03 1024.25 1024.44 1024.60 1024.72 1024.80 1024.84 1024.84 1024.79 1024.70 1024.56 1024.36 1024.11 1023.80 1023.44 1023.04 1022.60 1022.14 1021.66 1021.17 1020.68 1020.18 1019.68 1019.16 1018.63 1018.07 1017.49 1016.88 1016.27 1015.66 1015.06 1014.49 1013.97 1013.49 1013.07 1012.69 1012.33 1011.99 1011.64 1011.25 1010.82 1010.32
1024.01 1024.24 1024.45 1024.64 1024.80 1024.92 1024.99 1025.01 1024.98 1024.91 1024.79 1024.62 1024.40 1024.13 1023.80 1023.44 1023.03 1022.60 1022.14 1021.67 1021.19 1020.71 1020.21 1019.71 1019.19 1018.66 1018.10 1017.52 1016.92 1016.31 1015.70 1015.12 1014.56 1014.04 1013.57 1013.15 1012.77 1012.42 1012.08 1011.72 1011.34 1010.90 1010.40
1024.04 1024.26 1024.48 1024.68 1024.85 1024.97 1025.05 1025.07 1025.04 1024.95 1024.82 1024.63 1024.40 1024.12 1023.80 1023.43 1023.04 1022.62 1022.18 1021.72 1021.25 1020.78 1020.29 1019.79 1019.28 1018.74 1018.18 1017.60 1017.01 1016.41 1015.81 1015.23 1014.68 1014.17 1013.70 1013.28 1012.90 1012.55 1012.21 1011.86 1011.48 1011.05 1010.57
1023.91 1024.14 1024.37 1024.59 1024.77 1024.91 1025.00 1025.04 1025.01 1024.93 1024.79 1024.61 1024.37 1024.10 1023.78 1023.43 1023.06 1022.65 1022.23 1021.79 1021.34 1020.88 1020.40 1019.91 1019.40 1018.86 1018.31 1017.74 1017.15 1016.56 1015.97 1015.40 1014.86 1014.36 1013.90 1013.48 1013.11 1012.76 1012.42 1012.09 1011.73 1011.33 1010.88
1023.70 1023.93 1024.18 1024.42 1024.63 1024.80 1024.91 1024.96 1024.95 1024.88 1024.75 1024.57 1024.35 1024.08 1023.77 1023.44 1023.08 1022.69 1022.29 1021.87 1021.44 1020.99 1020.53 1020.05 1019.55 1019.03 1018.49 1017.93 1017.36 1016.78 1016.21 1015.65 1015.12 1014.63 1014.18 1013.78 1013.41 1013.08 1012.76 1012.45 1012.13 1011.78 1011.40
1023.49 1023.72 1023.99 1024.25 1024.48 1024.67 1024.81 1024.88 1024.89 1024.83 1024.71 1024.54 1024.32 1024.06 1023.76 1023.44 1023.10 1022.74 1022.36 1021.96 1021.55 1021.13 1020.68 1020.22 1019.74 1019.24 1018.72 1018.18 1017.63 1017.08 1016.53 1015.99 1015.48 1015.00 1014.57 1014.18 1013.83 1013.52 1013.24 1012.97 1012.71 1012.43 1012.12
1023.34 1023.59 1023.86 1024.13 1024.39 1024.60 1024.75 1024.84 1024.86 1024.81 1024.70 1024.53 1024.31 1024.06 1023.77 1023.46 1023.13 1022.79 1022.43 1022.06 1021.67 1021.28 1020.86 1020.43 1019.98 1019.50 1019.01 1018.50 1017.98 1017.45 1016.93 1016.41 1015.92 1015.47 1015.05 1014.68 1014.35 1014.08 1013.83 1013.62 1013.42 1013.21 1012.99
1023.32 1023.56 1023.83 1024.11 1024.37 1024.60 1024.76 1024.85 1024.88 1024.83 1024.72 1024.55 1024.33 1024.08 1023.80 1023.50 1023.18 1022.86 1022.52 1022.18 1021.82 1021.46 1021.07 1020.67 1020.25 1019.81 1019.35 1018.87 1018.38 1017.88 1017.38 1016.89 1016.42 1015.97 1015.58 1015.23 1014.93 1014.68 1014.48 1014.31 1014.17 1014.04 1013.90
1023.42 1023.65 1023.91 1024.19 1024.45 1024.67 1024.83 1024.92 1024.94 1024.89 1024.77 1024.60 1024.39 1024.14 1023.86 1023.58 1023.28 1022.97 1022.66 1022.34 1022.01 1021.68 1021.32 1020.95 1020.56 1020.14 1019.71 1019.26 1018.79 1018.31 1017.82 1017.35 1016.90 1016.47 1016.08 1015.75 1015.47 1015.24 1015.07 1014.95 1014.86 1014.79 1014.73
1023.61 1023.83 1024.08 1024.34 1024.59 1024.79 1024.94 1025.02 1025.03 1024.98 1024.86 1024.70 1024.49 1024.25 1023.99 1023.72 1023.43 1023.15 1022.86 1022.56 1022.25 1021.93 1021.60 1021.25 1020.87 1020.47 1020.05 1019.61 1019.15 1018.68 1018.21 1017.74 1017.29 1016.87 1016.50 1016.17 1015.90 1015.69 1015.54 1015.45 1015.39 1015.37 1015.35
1023.87 1024.07 1024.30 1024.54 1024.76 1024.95 1025.08 1025.15 1025.16 1025.11 1025.00 1024.84 1024.65 1024.43 1024.19 1023.94 1023.68 1023.41 1023.13 1022.85 1022.55 1022.24 1021.90 1021.55 1021.17 1020.76 1020.33 1019.88 1019.42 1018.94 1018.47 1018.00 1017.55 1017.13 1016.76 1016.44 1016.17 1015.97 1015.84 1015.75 1015.72 1015.71 1015.73
1024.13 1024.31 1024.52 1024.73 1024.94 1025.11 1025.23 1025.30 1025.32 1025.28 1025.19 1025.05 1024.88 1024.69 1024.47 1024.25 1024.01 1023.76 1023.49 1023.21 1022.90 1022.57 1022.22 1021.84 1021.43 1021.00 1020.54 1020.06 1019.58 1019.08 1018.59 1018.12 1017.66 1017.25 1016.87 1016.56 1016.30 1016.11 1015.97 1015.89 1015.86 1015.87 1015.89
1024.38 1024.54 1024.73 1024.92 1025.11 1025.28 1025.40 1025.48 1025.51 1025.49 1025.43 1025.33 1025.20 1025.04 1024.86 1024.66 1024.43 1024.19 1023.92 1023.63 1023.30 1022.94 1022.55 1022.13 1021.67 1021.19 1020.69 1020.17 1019.65 1019.13 1018.63 1018.14 1017.69 1017.27 1016.91 1016.60 1016.35 1016.17 1016.04 1015.96 1015.93 1015.93 1015.95
1024.61 1024.76 1024.93 1025.12 1025.31 1025.47 1025.60 1025.70 1025.76 1025.77 1025.75 1025.69 1025.60 1025.48 1025.33 1025.15 1024.94 1024.70 1024.43 1024.11 1023.75 1023.35 1022.90 1022.42 1021.91 1021.38 1020.83 1020.27 1019.71 1019.16 1018.64 1018.16 1017.71 1017.31 1016.96 1016.68 1016.45 1016.28 1016.16 1016.09 1016.06 1016.05 1016.06
Thickness
5636 5630 5624 5618 5613 5607 5601 5595 5588 5581 5575 5568 5561 5554 5548 5542 5537 5531 5524 5518 5512 5506 5501 5496 5491 5486 5481 5475 5471 5466 5461 5458 5463 5467 5459 5454 5450 5447 5445 5443 5441 5439 5437
5621 5616 5609 5604 5598 5591 5584 5577 5571 5564 5558 5551 5544 5538 5531 5525 5519 5514 5508 5501 5496 5491 5486 5481 5477 5472 5467 5462 5457 5453 5449 5446 5445 5451 5449 5444 5439 5436 5435 5433 5432 5431 5429
5604 5598 5592 5586 5580 5572 5565 5559 5553 5546 5540 5533 5527 5521 5514 5508 5502 5497 5491 5485 5480 5476 5471 5467 5463 5459 5455 5450 5446 5443 5440 5437 5434 5434 5437 5433 5431 5428 5427 5427 5426 5424 5423
5587 5580 5573 5567 5560 5553 5547 5541 5535 5529 5522 5516 5509 5503 5497 5492 5486 5481 5475 5470 5466 5462 5458 5454 5451 5447 5444 5440 5438 5434 5431 5428 5425 5424 5425 5425 5423 5423 5421 5421 5422 5421 5420
5569 5562 5555 5548 5541 5535 5529 5522 5516 5510 5504 5498 5492 5486 5481 5476 5471 5466 5461 5457 5453 5450 5446 5443 5439 5437 5436 5432 5429 5426 5423 5420 5418 5417 5418 5419 5419 5419 5418 5418 5418 5419 5418
5550 5543 5537 5531 5524 5517 5510 5504 5498 5491 5485 5480 5475 5469 5465 5461 5457 5453 5449 5444 5441 5438 5435 5432 5429 5428 5425 5422 5419 5416 5414 5412 5412 5413 5414 5414 5416 5415 5415 5414 5414 5415 5417
5532 5525 5519 5513 5507 5500 5493 5486 5480 5473 5468 5463 5458 5454 5450 5446 5443 5439 5436 5432 5429 5427 5424 5422 5420 5419 5416 5413 5411 5410 5408 5408 5408 5408 5410 5412 5413 5413 5412 5413 5412 5411 5411
5513 5507 5501 5495 5488 5481 5475 5468 5462 5457 5452 5448 5444 5440 5437 5434 5430 5426 5423 5420 5418 5417 5415 5414 5412 5410 5409 5407 5406 5407 5407 5408 5408 5408 5408 5409 5410 5409 5408 5408 5408 5408 5408
5495 5489 5483 5477 5470 5464 5458 5452 5447 5442 5438 5434 5431 5427 5424 5420 5417 5414 5412 5409 5408 5408 5407 5407 5405 5404 5403 5402 5403 5405 5407 5409 5409 5409 5409 5409 5409 5408 5407 5406 5406 5406 5407
5478 5472 5466 5460 5454 5448 5443 5437 5432 5428 5425 5421 5418 5414 5411 5408 5406 5403 5401 5399 5399 5399 5400 5401 5400 5399 5399 5400 5401 5404 5406 5408 5409 5410 5410 5410 5409 5408 5407 5404 5403 5403 5403
5463 5457 5451 5445 5440 5435 5429 5424 5420 5416 5412 5408 5405 5402 5399 5397 5395 5394 5392 5391 5391 5392 5394 5395 5396 5396 5398 5400 5402 5404 5405 5406 5408 5409 5409 5409 5409 5408 5406 5404 5402 5400 5400
5449 5443 5438 5433 5428 5423 5417 5411 5407 5403 5399 5395 5392 5391 5389 5388 5386 5386 5385 5385 5386 5387 5389 5391 5393 5395 5398 5401 5403 5405 5406 5408 5409 5409 5409 5409 5408 5407 5406 5404 5403 5401 5399
5437 5431 5425 5421 5415 5410 5405 5400 5395 5391 5387 5384 5382 5380 5380 5381 5380 5380 5381 5382 5383 5385 5387 5390 5393 5396 5399 5402 5404 5406 5408 5409 5409 5409 5408 5408 5407 5406 5405 5405 5404 5403 5402
5426 5420 5414 5409 5404 5398 5393 5389 5385 5381 5378 5376 5374 5374 5374 5375 5375 5376 5377 5379 5381 5384 5387 5390 5394 5397 5400 5402 5405 5407 5408 5408 5408 5408 5407 5406 5406 5406 5405 5404 5403 5402 5401
5417 5411 5405 5399 5393 5388 5384 5380 5377 5374 5371 5370 5369 5368 5368 5370 5370 5370 5371 5375 5378 5381 5385 5390 5394 5397 5400 5403 5406 5408 5409 5409 5409 5408 5407 5406 5406 5405 5404 5403 5402 5401 5400
5408 5401 5395 5389 5384 5380 5376 5373 5371 5369 5368 5366 5365 5364 5364 5364 5366 5368 5371 5374 5378 5382 5386 5389 5392 5395 5399 5402 5405 5407 5408 5409 5409 5408 5408 5406 5406 5405 5403 5402 5401 5400 5398
5399 5393 5387 5382 5378 5374 5370 5367 5365 5365 5364 5363 5362 5362 5362 5363 5365 5368 5371 5375 5379 5383 5386 5388 5391 5394 5398 5401 5403 5405 5407 5408 5409 5409 5408 5407 5406 5405 5403 5402 5400 5399 5397
5392 5387 5381 5376 5372 5369 5366 5363 5361 5360 5359 5360 5360 5361 5362 5364 5366 5368 5372 5377 5381 5384 5385 5388 5391 5394 5397 5400 5403 5405 5407 5409 5409 5409 5409 5408 5407 5405 5404 5402 5400 5398 5397
5387 5381 5376 5372 5368 5365 5362 5360 5358 5357 5357 5357 5358 5361 5362 5365 5368 5370 5373 5376 5379 5383 5385 5388 5391 5394 5397 5400 5403 5405 5407 5409 5410 5410 5410 5409 5408 5406 5405 5403 5401 5397 5397
5384 5379 5374 5369 5366 5363 5361 5359 5358 5357 5356 5357 5358 5359 5362 5365 5369 5372 5374 5377 5380 5383 5385 5388 5392 5394 5397 5401 5403 5406 5408 5410 5411 5412 5411 5411 5409 5408 5406 5404 5402 5400 5398
5383 5378 5374 5369 5366 5363 5361 5359 5358 5358 5358 5358 5359 5361 5363 5366 5369 5372 5375 5378 5381 5383 5386 5389 5392 5396 5399 5402 5404 5407 5409 5411 5412 5412 5413 5413 5412 5410 5408 5406 5403 5401 5399
5383 5378 5373 5370 5367 5364 5363 5361 5360 5359 5360 5361 5362 5364 5366 5368 5371 5374 5377 5379 5382 5385 5387 5390 5394 5396 5399 5402 5405 5408 5411 5413 5414 5414 5415 5415 5414 5413 5410 5408 5406 5404 5402
5384 5380 5375 5372 5369 5367 5365 5364 5363 5363 5363 5363 5364 5366 5368 5370 5372 5375 5377 5380 5383 5387 5390 5393 5396 5399 5402 5405 5407 5409 5412 5414 5415 5416 5417 5418 5417 5415 5413 5411 5409 5407 5405
5387 5382 5378 5375 5372 5370 5369 5367 5366 5366 5366 5366 5367 5368 5369 5371 5373 5375 5378 5381 5385 5388 5392 5395 5398 5401 5405 5409 5412 5414 5416 5418 5420 5421 5421 5421 5420 5418 5416 5414 5412 5410 5408
5389 5385 5382 5379 5377 5374 5373 5371 5370 5369 5369 5369 5369 5369 5371 5372 5374 5376 5379 5383 5386 5390 5393 5397 5400 5404 5408 5411 5414 5418 5421 5423 5425 5426 5425 5425 5423 5421 5420 5418 5416 5414 5412
5393 5389 5386 5383 5380 5378 5376 5374 5373 5372 5371 5370 5370 5370 5372 5373 5375 5377 5380 5383 5387 5391 5395 5399 5402 5406 5410 5414 5417 5421 5425 5427 5428 5429 5429 5428 5426 5425 5423 5421 5419 5418 5416